FW4334 Weather Reports


Display with metric or nautical units.
time (UTC)temp
F
wind
direction
speed
MPH
gust
MPH
rain 1hr
in
rain 24hr
in
rain mn
in
humidity
%
barometer
mb
20260508151536 77 82 0.0 4.0 0.00 0.00 0.00 77 1015.9
20260508151036 77 52 0.0 4.0 0.00 0.00 0.00 77 1015.9
20260508150535 77 65 1.0 4.0 0.00 0.00 0.00 77 1015.8
20260508150052 76 5 1.0 3.0 0.00 0.00 0.00 78 1015.7
20260508145535 76 143 0.0 3.0 0.00 0.00 0.00 78 1015.8
20260508145034 75 35 1.0 3.0 0.00 0.00 0.00 79 1015.8
20260508144533 75 34 0.0 2.0 0.00 0.00 0.00 80 1015.8
20260508144035 75 47 0.0 4.0 0.00 0.00 0.00 80 1015.8
20260508143532 75 79 0.0 4.0 0.00 0.00 0.00 80 1015.8
20260508143043 75 55 0.0 2.0 0.00 0.00 0.00 81 1015.8
20260508142531 75 69 0.0 2.0 0.00 0.00 0.00 82 1015.7
20260508142031 75 27 0.0 2.0 0.00 0.00 0.00 82 1015.7
20260508141531 75 84 0.0 3.0 0.00 0.00 0.00 83 1015.8
20260508141031 76 82 0.0 4.0 0.00 0.00 0.00 84 1015.8
20260508140533 77 54 0.0 1.0 0.00 0.00 0.00 85 1015.7
20260508140030 77 51 0.0 2.0 0.00 0.00 0.00 86 1015.6
20260508135529 77 28 0.0 2.0 0.00 0.00 0.00 86 1015.5
20260508135028 77 54 0.0 0.0 0.00 0.00 0.00 87 1015.5
20260508134527 77 54 0.0 0.0 0.00 0.00 0.00 87 1015.5
20260508134027 76 53 0.0 0.0 0.00 0.00 0.00 87 1015.3
20260508133527 76 53 0.0 0.0 0.00 0.00 0.00 88 1015.4
20260508133026 76 53 0.0 0.0 0.00 0.00 0.00 88 1015.4
20260508132526 76 316 0.0 0.0 0.00 0.00 0.00 89 1015.3
20260508132025 76 360 0.0 0.0 0.00 0.00 0.00 90 1015.4
20260508131525 76 360 0.0 0.0 0.00 0.00 0.00 90 1015.2
20260508131025 75 360 0.0 0.0 0.00 0.00 0.00 90 1015.2
20260508130524 75 360 0.0 0.0 0.00 0.00 0.00 90 1015.3
20260508130024 75 360 0.0 0.0 0.00 0.00 0.00 90 1015.3
20260508125524 75 360 0.0 0.0 0.00 0.00 0.00 91 1015.2
20260508125022 75 360 0.0 0.0 0.00 0.00 0.00 91 1015.2
20260508124523 75 360 0.0 0.0 0.00 0.00 0.00 92 1015.1
20260508124022 74 360 0.0 0.0 0.00 0.00 0.00 92 1015.1
20260508123523 74 360 0.0 0.0 0.00 0.00 0.00 92 1015.1
20260508123022 74 360 0.0 0.0 0.00 0.00 0.00 92 1015.0
20260508122521 74 360 0.0 0.0 0.00 0.00 0.00 92 1015.1
20260508122023 74 252 0.0 0.0 0.00 0.00 0.00 92 1015.1
20260508121521 74 252 0.0 0.0 0.00 0.00 0.00 92 1015.1
20260508121020 73 252 0.0 0.0 0.00 0.00 0.00 92 1015.0
20260508120520 73 252 0.0 0.0 0.00 0.00 0.00 92 1014.9
20260508120020 73 252 0.0 0.0 0.00 0.00 0.00 92 1014.9
20260508115519 73 252 0.0 0.0 0.00 0.00 0.00 92 1014.8
20260508115017 73 252 0.0 0.0 0.00 0.00 0.00 92 1014.6
20260508114516 73 252 0.0 0.0 0.00 0.00 0.00 92 1014.5
20260508114016 73 252 0.0 0.0 0.00 0.00 0.00 92 1014.4
20260508113515 73 252 0.0 0.0 0.00 0.00 0.00 92 1014.3
20260508113016 73 251 0.0 0.0 0.00 0.00 0.00 92 1014.1
20260508112515 73 251 0.0 0.0 0.00 0.00 0.00 92 1014.2
20260508112013 72 251 0.0 0.0 0.00 0.00 0.00 92 1014.2
20260508111513 72 251 0.0 0.0 0.00 0.00 0.00 92 1014.0
20260508111014 72 251 0.0 0.0 0.00 0.00 0.00 92 1014.1
20260508110511 72 251 0.0 0.0 0.00 0.00 0.00 92 1013.9
20260508110011 72 251 0.0 0.0 0.00 0.00 0.00 92 1013.9
20260508105511 72 251 0.0 0.0 0.00 0.00 0.00 92 1013.7
20260508105010 72 251 0.0 0.0 0.00 0.00 0.00 92 1013.6
20260508104510 72 251 0.0 0.0 0.00 0.00 0.00 92 1013.4
20260508104009 72 251 0.0 0.0 0.00 0.00 0.00 92 1013.3
20260508103510 72 251 0.0 0.0 0.00 0.00 0.00 92 1013.3
20260508103010 72 251 0.0 0.0 0.00 0.00 0.00 92 1013.5
20260508102509 72 251 0.0 0.0 0.00 0.00 0.00 92 1013.1
20260508102009 72 251 0.0 0.0 0.00 0.00 0.00 92 1013.0
20260508101509 72 251 0.0 0.0 0.00 0.00 0.00 92 1013.1
20260508101009 72 251 0.0 0.0 0.00 0.00 0.00 91 1013.1
20260508100507 72 251 0.0 0.0 0.00 0.00 0.00 91 1013.0
20260508100012 72 251 0.0 0.0 0.00 0.00 0.00 91 1013.1
20260508095507 72 251 0.0 0.0 0.00 0.00 0.00 91 1012.9
20260508095007 72 251 0.0 0.0 0.00 0.00 0.00 91 1012.9
20260508094505 72 251 0.0 0.0 0.00 0.00 0.00 91 1012.8
20260508094009 72 251 0.0 0.0 0.00 0.00 0.00 91 1012.7
20260508093506 72 251 0.0 0.0 0.00 0.00 0.00 91 1012.9
20260508093004 72 251 0.0 0.0 0.00 0.00 0.00 91 1012.7
20260508092506 72 251 0.0 0.0 0.00 0.00 0.00 91 1012.7
20260508092004 72 251 0.0 0.0 0.00 0.00 0.00 91 1012.7
20260508091505 72 251 0.0 0.0 0.00 0.00 0.00 90 1012.8
20260508091004 72 251 0.0 0.0 0.00 0.00 0.00 90 1012.7
20260508090504 72 251 0.0 0.0 0.00 0.00 0.00 90 1012.7
20260508090004 72 251 0.0 0.0 0.00 0.00 0.00 90 1012.6
20260508085502 72 251 0.0 0.0 0.00 0.00 0.00 90 1012.6
20260508085001 72 251 0.0 0.0 0.00 0.00 0.00 90 1012.5
20260508084501 72 251 0.0 0.0 0.00 0.00 0.00 90 1012.6
20260508084101 73 251 0.0 0.0 0.00 0.00 0.00 90 1012.6
20260508083600 73 251 0.0 0.0 0.00 0.00 0.00 90 1012.6
20260508083109 73 251 0.0 0.0 0.00 0.00 0.00 90 1012.8
20260508082600 73 251 0.0 0.0 0.00 0.00 0.00 90 1012.7
20260508082100 73 251 0.0 0.0 0.00 0.00 0.00 90 1012.6
20260508081559 73 251 0.0 0.0 0.00 0.00 0.00 89 1012.7
20260508081059 73 251 0.0 0.0 0.00 0.00 0.00 90 1012.7
20260508080559 73 250 0.0 0.0 0.00 0.00 0.00 89 1012.8
20260508080110 73 250 0.0 0.0 0.00 0.00 0.00 89 1012.7
20260508075559 73 360 0.0 0.0 0.00 0.00 0.00 89 1012.7
20260508075057 73 250 0.0 0.0 0.00 0.00 0.00 89 1012.8
20260508074611 73 251 0.0 0.0 0.00 0.00 0.00 89 1012.7
20260508074055 73 251 0.0 0.0 0.00 0.00 0.00 89 1012.7
20260508073559 73 251 0.0 0.0 0.00 0.00 0.00 89 1012.8
20260508073058 74 251 0.0 0.0 0.00 0.00 0.00 89 1012.9
20260508072558 74 251 0.0 0.0 0.00 0.00 0.00 88 1012.9
20260508072053 74 251 0.0 0.0 0.00 0.00 0.00 88 1012.9
20260508071553 74 251 0.0 0.0 0.00 0.00 0.00 88 1013.1
20260508071053 74 251 0.0 0.0 0.00 0.00 0.00 88 1013.0
20260508070553 74 251 0.0 0.0 0.00 0.00 0.00 88 1013.1
20260508070054 74 249 0.0 0.0 0.00 0.00 0.00 88 1013.1
20260508065552 74 360 0.0 0.0 0.00 0.00 0.00 87 1013.1
20260508065049 74 360 0.0 0.0 0.00 0.00 0.00 87 1013.2
20260508064555 74 360 0.0 0.0 0.00 0.00 0.00 87 1013.2
20260508064048 75 360 0.0 0.0 0.00 0.00 0.00 87 1013.3
20260508063547 75 360 0.0 0.0 0.00 0.00 0.00 87 1013.3
20260508063050 75 360 0.0 0.0 0.00 0.00 0.00 87 1013.3
20260508062546 75 287 0.0 0.0 0.00 0.00 0.00 87 1013.4
20260508062045 75 287 0.0 0.0 0.00 0.00 0.00 87 1013.4
20260508061545 75 287 0.0 0.0 0.00 0.00 0.00 86 1013.4
20260508061048 75 287 0.0 0.0 0.00 0.00 0.00 86 1013.3
20260508060543 75 287 0.0 0.0 0.00 0.00 0.00 86 1013.5
20260508060043 76 287 0.0 0.0 0.00 0.00 0.00 86 1013.4
20260508055543 76 287 0.0 0.0 0.00 0.00 0.00 86 1013.5
20260508055042 76 287 0.0 0.0 0.00 0.00 0.00 85 1013.5
20260508054546 76 286 0.0 0.0 0.00 0.00 0.00 85 1013.5
20260508054042 76 289 0.0 0.0 0.00 0.00 0.00 85 1013.6
20260508053540 76 289 0.0 0.0 0.00 0.00 0.00 85 1013.6
20260508053050 76 289 0.0 3.0 0.00 0.00 0.00 85 1013.5
20260508052540 76 286 0.0 3.0 0.00 0.00 0.00 85 1013.6
20260508052040 76 219 0.0 3.0 0.00 0.00 0.00 84 1013.6
20260508051540 76 230 0.0 0.0 0.00 0.00 0.00 84 1013.5
20260508051037 77 267 0.0 0.0 0.00 0.00 0.00 84 1013.6
20260508050537 77 267 0.0 2.0 0.00 0.00 0.00 83 1013.6
20260508050048 77 301 0.0 2.0 0.00 0.00 0.00 83 1013.5
20260508045536 77 200 0.0 2.0 0.00 0.00 0.00 83 1013.6
20260508045036 77 277 0.0 0.0 0.00 0.00 0.00 83 1013.6
20260508044534 77 277 0.0 0.0 0.00 0.00 0.00 83 1013.6
20260508044034 77 277 0.0 0.0 0.00 0.00 0.00 83 1013.7
20260508043533 77 275 0.0 0.0 0.00 0.00 0.00 82 1013.6
20260508043033 77 273 0.0 0.0 0.00 0.00 0.00 82 1013.6
20260508042533 78 260 0.0 0.0 0.00 0.00 0.00 82 1013.5
20260508042032 78 280 0.0 0.0 0.00 0.00 0.00 82 1013.5
20260508041531 78 279 0.0 3.0 0.00 0.00 0.00 82 1013.6
20260508041032 78 281 1.0 3.0 0.00 0.00 0.00 82 1013.5
20260508040533 78 309 0.0 4.0 0.00 0.00 0.00 81 1013.6
20260508040042 78 281 0.0 4.0 0.00 0.00 0.00 81 1013.5
20260508035529 78 272 0.0 3.0 0.00 0.00 0.00 81 1013.6
20260508035029 78 306 1.0 3.0 0.00 0.00 0.00 81 1013.6
20260508034538 78 284 0.0 3.0 0.00 0.00 0.00 81 1013.6
20260508034031 78 238 0.0 4.0 0.00 0.00 0.00 80 1013.5
20260508033531 79 282 1.0 4.0 0.00 0.00 0.00 80 1013.4
20260508033029 79 257 1.0 4.0 0.00 0.00 0.00 80 1013.5
20260508032528 79 255 1.0 3.0 0.00 0.00 0.00 79 1013.5
20260508032029 79 275 1.0 5.0 0.00 0.00 0.00 79 1013.5
20260508031532 79 254 1.0 4.0 0.00 0.00 0.00 79 1013.4
20260508031030 79 280 1.0 4.0 0.00 0.00 0.00 78 1013.3
20260508030527 79 262 0.0 4.0 0.00 0.00 0.00 78 1013.2
20260508030027 79 286 0.0 4.0 0.00 0.00 0.00 78 1013.2
20260508025526 80 210 1.0 4.0 0.00 0.00 0.00 77 1013.1
20260508025027 80 292 1.0 4.0 0.00 0.00 0.00 77 1013.2
20260508024528 80 286 0.0 3.0 0.00 0.00 0.00 76 1013.0
20260508024029 80 286 1.0 3.0 0.00 0.00 0.00 76 1013.0
20260508023526 80 238 1.0 4.0 0.00 0.00 0.00 76 1013.0
20260508023026 80 284 0.0 4.0 0.00 0.00 0.00 75 1012.9
20260508022525 81 227 0.0 8.0 0.00 0.00 0.00 75 1013.0
20260508022025 81 279 0.0 3.0 0.00 0.00 0.00 74 1012.9
20260508021525 81 276 1.0 2.0 0.00 0.00 0.00 73 1013.0
20260508021027 81 272 0.0 3.0 0.00 0.00 0.00 73 1012.9
20260508020525 81 269 1.0 3.0 0.00 0.00 0.00 72 1012.9
20260508020025 82 217 0.0 3.0 0.00 0.00 0.00 71 1012.8
20260508015525 82 285 0.0 3.0 0.00 0.00 0.00 70 1012.8
20260508015025 82 265 0.0 3.0 0.00 0.00 0.00 69 1012.7
20260508014524 82 248 0.0 1.0 0.00 0.00 0.00 68 1012.7
20260508014024 82 248 0.0 2.0 0.00 0.00 0.00 68 1012.6
20260508013523 82 248 0.0 2.0 0.00 0.00 0.00 67 1012.5
20260508013023 82 217 0.0 0.0 0.00 0.00 0.00 67 1012.6
20260508012523 83 217 0.0 0.0 0.00 0.00 0.00 66 1012.4
20260508012023 83 235 0.0 2.0 0.00 0.00 0.00 66 1012.5
20260508011524 83 252 0.0 2.0 0.00 0.00 0.00 66 1012.6
20260508011022 83 235 0.0 2.0 0.00 0.00 0.00 65 1012.4
20260508010521 83 231 0.0 2.0 0.00 0.00 0.00 65 1012.1
20260508010024 83 257 0.0 2.0 0.00 0.00 0.00 64 1012.2
20260508005521 84 223 0.0 2.0 0.00 0.00 0.00 64 1012.0
20260508005023 84 227 0.0 3.0 0.00 0.00 0.00 63 1012.1
20260508004523 84 227 0.0 3.0 0.00 0.00 0.00 63 1012.1
20260508004023 84 204 1.0 4.0 0.00 0.00 0.00 62 1011.9
20260508003523 84 204 0.0 8.0 0.00 0.00 0.00 62 1011.9
20260508003020 85 218 2.0 8.0 0.00 0.00 0.00 61 1011.8
20260508002520 85 201 1.0 5.0 0.00 0.00 0.00 61 1011.9
20260508002020 85 236 1.0 5.0 0.00 0.00 0.00 61 1012.1
20260508001520 85 205 1.0 5.0 0.00 0.00 0.00 60 1012.1
20260508001019 85 225 1.0 5.0 0.00 0.00 0.00 59 1012.0
20260508000522 86 198 0.0 5.0 0.00 0.00 0.00 59 1011.9
20260508000019 86 214 2.0 5.0 0.00 0.00 0.00 58 1011.9
20260507235519 86 271 1.0 7.0 0.00 0.00 0.00 57 1012.1
20260507235019 86 244 1.0 6.0 0.00 0.00 0.00 56 1011.9
20260507234529 87 208 2.0 5.0 0.00 0.00 0.00 56 1011.9
20260507234018 87 269 1.0 4.0 0.00 0.00 0.00 55 1012.0
20260507233518 87 277 0.0 8.0 0.00 0.00 0.00 55 1012.0
20260507233021 87 261 2.0 8.0 0.00 0.00 0.00 54 1011.7
20260507232520 88 282 2.0 8.0 0.00 0.00 0.00 53 1011.7
20260507232016 88 269 2.0 8.0 0.00 0.00 0.00 53 1011.6
20260507231516 88 288 3.0 8.0 0.00 0.00 0.00 53 1011.5
20260507231016 88 206 3.0 7.0 0.00 0.00 0.00 55 1011.5
20260507230617 88 208 3.0 7.0 0.00 0.00 0.00 54 1011.5
20260507230018 88 320 2.0 7.0 0.00 0.00 0.00 54 1011.4
20260507225517 88 269 2.0 9.0 0.00 0.00 0.00 53 1011.4
20260507225016 89 252 1.0 9.0 0.00 0.00 0.00 53 1011.2
20260507224516 89 178 1.0 10.0 0.00 0.00 0.00 52 1011.2
20260507224016 89 188 3.0 10.0 0.00 0.00 0.00 52 1011.2
20260507223515 89 263 1.0 5.0 0.00 0.00 0.00 51 1011.1
20260507223015 89 246 2.0 6.0 0.00 0.00 0.00 52 1011.1
20260507222518 89 230 3.0 13.0 0.00 0.00 0.00 52 1011.0
20260507222015 89 240 2.0 7.0 0.00 0.00 0.00 51 1010.9
20260507221518 89 202 2.0 9.0 0.00 0.00 0.00 51 1011.0
20260507221014 89 284 3.0 9.0 0.00 0.00 0.00 51 1011.0
20260507220513 89 240 4.0 9.0 0.00 0.00 0.00 50 1011.0
20260507220014 89 267 2.0 15.0 0.00 0.00 0.00 50 1011.0
20260507215514 89 180 5.0 15.0 0.00 0.00 0.00 50 1011.0
20260507215012 89 202 3.0 9.0 0.00 0.00 0.00 51 1011.0
20260507214512 89 228 3.0 7.0 0.00 0.00 0.00 52 1011.2
20260507214011 89 191 2.0 10.0 0.00 0.00 0.00 54 1011.2
20260507213512 89 313 2.0 10.0 0.00 0.00 0.00 54 1011.2
20260507213017 89 273 2.0 7.0 0.00 0.00 0.00 54 1011.1
20260507212510 89 225 1.0 12.0 0.00 0.00 0.00 55 1011.2
20260507212011 88 253 4.0 12.0 0.00 0.00 0.00 53 1011.2
20260507211510 88 256 1.0 7.0 0.00 0.00 0.00 57 1011.3
20260507211009 88 268 3.0 7.0 0.00 0.00 0.00 57 1011.4
20260507210509 88 294 2.0 7.0 0.00 0.00 0.00 58 1011.6
20260507210008 88 306 2.0 8.0 0.00 0.00 0.00 58 1011.8
20260507205508 88 261 3.0 8.0 0.00 0.00 0.00 58 1011.9
20260507205007 88 239 2.0 8.0 0.00 0.00 0.00 58 1012.1
20260507204505 88 215 2.0 8.0 0.00 0.00 0.00 58 1012.3
20260507204004 88 283 1.0 8.0 0.00 0.00 0.00 59 1012.6
20260507203504 88 250 1.0 4.0 0.00 0.00 0.00 60 1012.8
20260507203004 87 288 2.0 8.0 0.00 0.00 0.00 60 1012.7
20260507202502 87 282 3.0 8.0 0.00 0.00 0.00 62 1013.0
20260507202001 86 290 2.0 9.0 0.00 0.00 0.00 64 1013.1
20260507201505 85 269 1.0 9.0 0.00 0.00 0.00 65 1013.2
20260507201001 85 279 2.0 7.0 0.00 0.00 0.00 65 1013.2
20260507200602 85 246 3.0 7.0 0.00 0.00 0.00 65 1013.2
20260507200106 85 180 1.0 6.0 0.00 0.00 0.00 67 1013.2
20260507195600 84 181 2.0 7.0 0.00 0.00 0.00 66 1013.3
20260507195100 84 207 1.0 7.0 0.00 0.00 0.00 67 1013.2
20260507194601 85 187 2.0 5.0 0.00 0.00 0.00 67 1013.2
20260507194059 85 271 0.0 7.0 0.00 0.00 0.00 66 1013.4
20260507193559 85 288 2.0 7.0 0.00 0.00 0.00 66 1013.8
20260507193059 85 325 0.0 3.0 0.00 0.00 0.00 66 1014.0
20260507192558 85 334 0.0 3.0 0.00 0.00 0.00 66 1014.0
20260507192058 85 290 1.0 7.0 0.00 0.00 0.00 65 1014.1
20260507191603 85 360 1.0 7.0 0.00 0.00 0.00 65 1014.3
20260507191058 85 26 1.0 7.0 0.00 0.00 0.00 64 1014.4
20260507190558 86 347 1.0 7.0 0.00 0.00 0.00 64 1014.3
20260507190107 86 360 2.0 7.0 0.00 0.00 0.00 63 1014.1
20260507185559 87 277 2.0 7.0 0.00 0.00 0.00 62 1014.2
20260507185058 87 302 1.0 7.0 0.00 0.00 0.00 61 1014.0
20260507184557 87 282 1.0 7.0 0.00 0.00 0.00 58 1014.2
20260507184057 88 256 2.0 4.0 0.00 0.00 0.00 58 1014.4
20260507183558 88 5 1.0 6.0 0.00 0.00 0.00 57 1014.3
20260507183115 88 269 1.0 6.0 0.00 0.00 0.00 57 1014.4
20260507182557 88 288 2.0 7.0 0.00 0.00 0.00 57 1014.4
20260507182057 88 311 1.0 4.0 0.00 0.00 0.00 57 1014.6
20260507181600 88 329 1.0 4.0 0.00 0.00 0.00 57 1014.5
20260507181056 88 288 1.0 4.0 0.00 0.00 0.00 56 1014.5
20260507180558 88 306 0.0 5.0 0.00 0.00 0.00 56 1014.5
20260507180059 88 280 2.0 5.0 0.00 0.00 0.00 54 1014.6
20260507175556 89 271 2.0 6.0 0.00 0.00 0.00 53 1014.7
20260507175056 89 269 1.0 8.0 0.00 0.00 0.00 54 1014.8
20260507174603 89 319 1.0 8.0 0.00 0.00 0.00 53 1014.8
20260507174056 89 360 0.0 7.0 0.00 0.00 0.00 52 1014.9
20260507173554 90 325 1.0 7.0 0.00 0.00 0.00 51 1014.9
20260507173103 90 34 0.0 6.0 0.00 0.00 0.00 51 1015.0
20260507172553 90 281 1.0 6.0 0.00 0.00 0.00 50 1014.9
20260507172053 90 297 1.0 3.0 0.00 0.00 0.00 50 1015.0
20260507171554 91 319 1.0 4.0 0.00 0.00 0.00 50 1014.9
20260507171053 91 261 2.0 4.0 0.00 0.00 0.00 49 1014.9
20260507170552 91 285 0.0 2.0 0.00 0.00 0.00 50 1014.8
20260507170053 91 36 0.0 3.0 0.00 0.00 0.00 50 1014.9
20260507165550 90 311 0.0 3.0 0.00 0.00 0.00 53 1014.9
20260507165050 90 269 0.0 3.0 0.00 0.00 0.00 53 1014.8
20260507164613 90 275 1.0 4.0 0.00 0.00 0.00 53 1014.8
20260507164049 91 277 1.0 3.0 0.00 0.00 0.00 53 1014.9
20260507163548 90 335 1.0 4.0 0.00 0.00 0.00 53 1014.8
20260507163053 90 286 1.0 4.0 0.00 0.00 0.00 54 1014.9
20260507162547 90 336 0.0 3.0 0.00 0.00 0.00 55 1014.8
20260507162047 90 327 1.0 5.0 0.00 0.00 0.00 56 1014.8
20260507161554 90 327 0.0 4.0 0.00 0.00 0.00 56 1014.9
20260507161049 90 271 1.0 4.0 0.00 0.00 0.00 57 1015.0
20260507160544 90 313 1.0 4.0 0.00 0.00 0.00 57 1015.1
20260507160043 90 13 1.0 4.0 0.00 0.00 0.00 53 1015.1
20260507155542 89 290 2.0 4.0 0.00 0.00 0.00 52 1015.2
20260507155042 89 300 1.0 4.0 0.00 0.00 0.00 54 1015.3
20260507154540 89 283 1.0 4.0 0.00 0.00 0.00 52 1015.3
20260507154039 88 271 1.0 6.0 0.00 0.00 0.00 53 1015.3
20260507153540 88 259 2.0 6.0 0.00 0.00 0.00 53 1015.2
20260507153041 87 272 1.0 8.0 0.00 0.00 0.00 55 1015.2
20260507152535 87 223 3.0 8.0 0.00 0.00 0.00 56 1015.1
20260507152034 86 294 0.0 4.0 0.00 0.00 0.00 59 1015.0